Starlink 34095

operational
NORAD ID: 63809 Int'l Des: 2025-092 Owner: SPXS Country: US Constellation: starlink
LEOCIRCULAR

关于 Starlink 34095

正在加载描述...

实时位置

正在加载3D地球...

即将过境

高度历史

Altitude vs Time

uPlot chart will show altitude changes over time

两行轨道根数

1 63809U 25092F 25351.52304533 .00024414 00000-0 89379-3 0 9999
2 63809 43.0025 276.9922 0001124 283.6008 76.4718 15.27580268 36044
Epoch: Dec 17, 2025 • Age: 8 hours

当前状态

高度 485.6 km
速度 7.63 km/s
星下点 37.84°N, 65.86°W
发射日期 May 4, 2025
运行时间 0.6 years
类型 internet

技术详情

分类 Payload
质量 575.00 kg
干质量 530.00 kg
总质量 575.00 kg
长度 0.30 m
直径 4.10 m
跨度 29.00 m
形状 Box + pan
制造商 SPXS
平台类型 Starlink V2MO
阶段状态 In Orbit
所有者/国家 SPXS/US

大型星座

Loading constellations...